• In Hungary
  • List of Countries
  • For 7 days
  • Water Temperature
  • Satellite Maps
  • Weather Map
  • News
  • Weather Widgets
  • user-avatar
    Login

    Hourly Weather Chudynivtsi

    Today, 26 May, Saturday

    Time Temperature Precipitation Wind Pressure Humidity
    00:00 +16°C° 0 mm 3 mps 742 mmHg 89%
    01:00 +16°C° 0 mm 3 mps 742 mmHg 91%
    02:00 +15°C° 0 mm 2 mps 742 mmHg 93%
    03:00 +15°C° 0 mm 2 mps 742 mmHg 94%
    04:00 +14°C° 0 mm 3 mps 742 mmHg 95%
    05:00 +13°C° 0 mm 3 mps 742 mmHg 95%
    06:00 +16°C° 0 mm 3 mps 742 mmHg 91%
    07:00 +17°C° 0 mm 4 mps 743 mmHg 87%
    08:00 +19°C° 0 mm 4 mps 743 mmHg 81%
    09:00 +20°C° 0 mm 4 mps 744 mmHg 75%
    10:00 +20°C° 0 mm 5 mps 744 mmHg 70%
    11:00 +21°C° 0 mm 5 mps 744 mmHg 65%
    12:00 +21°C° 0 mm 5 mps 744 mmHg 64%
    13:00 +21°C° 0 mm 5 mps 744 mmHg 64%
    14:00 +22°C° 0 mm 5 mps 744 mmHg 63%
    15:00 +21°C° 0 mm 5 mps 744 mmHg 65%
    16:00 +21°C° 0 mm 5 mps 744 mmHg 66%
    17:00 +21°C° 0 mm 5 mps 743 mmHg 68%
    18:00 +20°C° 0 mm 4 mps 744 mmHg 72%
    19:00 +18°C° 0 mm 4 mps 744 mmHg 76%
    20:00 +17°C° 0 mm 3 mps 744 mmHg 80%
    21:00 +15°C° 0 mm 4 mps 744 mmHg 80%
    22:00 +15°C° 0 mm 4 mps 745 mmHg 80%
    23:00 +14°C° 0 mm 4 mps 745 mmHg 81%

    Tomorrow, 27 May, Sunday

    Time Temperature Precipitation Wind Pressure Humidity
    00:00 +13°C° 0 mm 4 mps 745 mmHg 82%
    01:00 +12°C° 0 mm 4 mps 745 mmHg 83%
    02:00 +11°C° 0 mm 4 mps 745 mmHg 84%
    03:00 +11°C° 0 mm 3 mps 745 mmHg 85%
    04:00 +10°C° 0 mm 3 mps 744 mmHg 85%
    05:00 +10°C° 0 mm 3 mps 744 mmHg 86%
    06:00 +11°C° 0 mm 3 mps 745 mmHg 82%
    07:00 +13°C° 0 mm 4 mps 745 mmHg 78%
    08:00 +14°C° 0 mm 4 mps 745 mmHg 74%
    09:00 +15°C° 0 mm 4 mps 745 mmHg 69%
    10:00 +18°C° 0 mm 4 mps 745 mmHg 64%
    11:00 +19°C° 0 mm 4 mps 745 mmHg 59%
    12:00 +20°C° 0 mm 4 mps 745 mmHg 57%
    13:00 +20°C° 0 mm 4 mps 745 mmHg 55%
    14:00 +21°C° 0 mm 4 mps 744 mmHg 53%
    15:00 +20°C° 0 mm 4 mps 744 mmHg 55%
    16:00 +20°C° 0 mm 3 mps 744 mmHg 56%
    17:00 +20°C° 0 mm 3 mps 743 mmHg 58%
    18:00 +18°C° 0 mm 3 mps 743 mmHg 64%
    19:00 +16°C° 0 mm 3 mps 743 mmHg 70%
    20:00 +14°C° 0 mm 3 mps 744 mmHg 77%
    21:00 +13°C° 0 mm 3 mps 744 mmHg 79%
    22:00 +13°C° 0 mm 2 mps 744 mmHg 80%
    23:00 +12°C° 0 mm 2 mps 744 mmHg 82%

    Day after tomorrow, 28 May, Monday

    Time Temperature Precipitation Wind Pressure Humidity
    00:00 +10°C° 0 mm 2 mps 744 mmHg 83%
    01:00 +10°C° 0 mm 2 mps 744 mmHg 84%
    02:00 +9°C° 0 mm 2 mps 744 mmHg 85%
    03:00 +9°C° 0 mm 2 mps 744 mmHg 85%
    04:00 +9°C° 0 mm 2 mps 744 mmHg 86%
    05:00 +9°C° 0 mm 2 mps 745 mmHg 86%
    06:00 +12°C° 0 mm 2 mps 745 mmHg 80%
    07:00 +13°C° 0 mm 3 mps 745 mmHg 75%
    08:00 +16°C° 0 mm 3 mps 746 mmHg 69%
    09:00 +17°C° 0 mm 3 mps 746 mmHg 65%
    10:00 +19°C° 0 mm 4 mps 746 mmHg 60%
    11:00 +20°C° 0 mm 4 mps 746 mmHg 56%
    12:00 +20°C° 0 mm 4 mps 746 mmHg 56%
    13:00 +21°C° 0 mm 4 mps 746 mmHg 55%
    14:00 +22°C° 0 mm 4 mps 745 mmHg 55%
    15:00 +21°C° 0 mm 4 mps 745 mmHg 57%
    16:00 +21°C° 0 mm 4 mps 745 mmHg 59%
    17:00 +21°C° 0 mm 4 mps 745 mmHg 61%
    18:00 +20°C° 0 mm 3 mps 745 mmHg 68%
    19:00 +18°C° 0 mm 3 mps 745 mmHg 74%
    20:00 +16°C° 0 mm 2 mps 745 mmHg 81%
    21:00 +15°C° 0 mm 2 mps 745 mmHg 83%
    22:00 +15°C° 0 mm 2 mps 745 mmHg 86%
    23:00 +14°C° 0 mm 2 mps 746 mmHg 89%

    29 May, Tuesday

    Time Temperature Precipitation Wind Pressure Humidity
    00:00 +13°C° 0 mm 2 mps 746 mmHg 89%
    01:00 +13°C° 0 mm 2 mps 746 mmHg 90%
    02:00 +13°C° 0 mm 2 mps 745 mmHg 90%
    03:00 +13°C° 0 mm 2 mps 745 mmHg 91%
    04:00 +13°C° 0 mm 2 mps 745 mmHg 91%
    05:00 +13°C° 0 mm 2 mps 745 mmHg 91%
    06:00 +15°C° 0 mm 2 mps 746 mmHg 86%
    07:00 +17°C° 0 mm 3 mps 746 mmHg 81%
    08:00 +19°C° 0 mm 3 mps 746 mmHg 75%
    09:00 +20°C° 0 mm 3 mps 746 mmHg 71%
    10:00 +22°C° 0 mm 3 mps 746 mmHg 67%
    11:00 +24°C° 0 mm 3 mps 745 mmHg 62%
    12:00 +24°C° 0.1 mm 3 mps 745 mmHg 63%
    13:00 +24°C° 0.1 mm 3 mps 745 mmHg 64%
    14:00 +25°C° 0.1 mm 3 mps 744 mmHg 64%
    15:00 +24°C° 0.1 mm 3 mps 744 mmHg 66%
    16:00 +23°C° 0.1 mm 4 mps 744 mmHg 69%
    17:00 +22°C° 0.1 mm 4 mps 743 mmHg 71%
    18:00 +21°C° 0 mm 3 mps 743 mmHg 74%
    19:00 +19°C° 0 mm 3 mps 743 mmHg 78%
    20:00 +17°C° 0 mm 3 mps 743 mmHg 81%
    21:00 +16°C° 0 mm 3 mps 743 mmHg 81%
    22:00 +14°C° 0 mm 3 mps 743 mmHg 80%
    23:00 +13°C° 0 mm 3 mps 743 mmHg 79%

    30 May, Wednesday

    Time Temperature Precipitation Wind Pressure Humidity
    00:00 +12°C° 0 mm 3 mps 742 mmHg 81%
    01:00 +11°C° 0 mm 3 mps 742 mmHg 82%
    02:00 +12°C° 0 mm 2 mps 742 mmHg 83%
    03:00 +12°C° 0 mm 2 mps 742 mmHg 84%
    04:00 +10°C° 0 mm 2 mps 742 mmHg 85%
    05:00 +10°C° 0 mm 2 mps 741 mmHg 87%
    06:00 +13°C° 0 mm 2 mps 741 mmHg 80%
    07:00 +15°C° 0 mm 2 mps 741 mmHg 74%
    08:00 +18°C° 0 mm 2 mps 741 mmHg 68%
    09:00 +19°C° 0 mm 2 mps 741 mmHg 63%
    10:00 +20°C° 0 mm 2 mps 741 mmHg 57%
    11:00 +21°C° 0 mm 2 mps 741 mmHg 52%
    12:00 +23°C° 0 mm 2 mps 741 mmHg 50%
    13:00 +24°C° 0 mm 2 mps 740 mmHg 48%
    14:00 +24°C° 0 mm 2 mps 740 mmHg 46%
    15:00 +24°C° 0 mm 1 mps 740 mmHg 47%
    16:00 +24°C° 0 mm 1 mps 739 mmHg 48%
    17:00 +24°C° 0 mm 1 mps 739 mmHg 49%
    18:00 +22°C° 0 mm 1 mps 739 mmHg 54%
    19:00 +20°C° 0 mm 1 mps 738 mmHg 60%
    20:00 +18°C° 0 mm 1 mps 738 mmHg 66%
    21:00 +18°C° 0 mm 1 mps 738 mmHg 69%
    22:00 +16°C° 0 mm 1 mps 738 mmHg 71%
    23:00 +15°C° 0 mm 1 mps 738 mmHg 74%

    31 May, Thursday

    Time Temperature Precipitation Wind Pressure Humidity
    00:00 +13°C° 0 mm 0 mps 738 mmHg 75%
    01:00 +13°C° 0 mm 0 mps 738 mmHg 77%
    02:00 +13°C° 0 mm 0 mps 738 mmHg 78%
    03:00 +13°C° 0 mm 0 mps 738 mmHg 78%
    04:00 +13°C° 0 mm 0 mps 738 mmHg 78%
    05:00 +13°C° 0 mm 0 mps 738 mmHg 78%
    06:00 +16°C° 0 mm 1 mps 738 mmHg 73%
    07:00 +19°C° 0 mm 1 mps 738 mmHg 68%
    08:00 +21°C° 0 mm 1 mps 738 mmHg 63%
    09:00 +22°C° 0 mm 1 mps 738 mmHg 59%
    10:00 +24°C° 0 mm 1 mps 738 mmHg 54%
    11:00 +25°C° 0 mm 1 mps 738 mmHg 50%
    12:00 +25°C° 0 mm 2 mps 737 mmHg 49%
    13:00 +26°C° 0 mm 2 mps 737 mmHg 47%
    14:00 +27°C° 0 mm 2 mps 737 mmHg 46%
    15:00 +27°C° 0 mm 2 mps 737 mmHg 49%
    16:00 +26°C° 0 mm 2 mps 737 mmHg 51%
    17:00 +26°C° 0 mm 2 mps 736 mmHg 54%
    18:00 +25°C° 0 mm 2 mps 736 mmHg 60%
    19:00 +23°C° 0 mm 2 mps 736 mmHg 66%
    20:00 +21°C° 0 mm 1 mps 736 mmHg 72%
    21:00 +19°C° 0 mm 2 mps 736 mmHg 74%
    22:00 +19°C° 0 mm 2 mps 737 mmHg 76%
    23:00 +18°C° 0 mm 3 mps 737 mmHg 78%
    Show more